Change the Weather History Date:

Friday, October 4, 2013

  Actual Average Record
Temperature  
Mean Temperature 28 °F 50 °F  
Max Temperature 30 °F 63 °F 85 °F (1963)
Min Temperature 26 °F 37 °F 18 °F (1891)
Degree Days  
Heating Degree Days 37 15  
Month to date heating degree days 93 57  
Since 1 July heating degree days 285 316  
Cooling Degree Days 0 0  
Month to date cooling degree days 0 0  
Year to date cooling degree days 743 472  
Moisture  
Dew Point 28 °F    
Average Humidity 93    
Maximum Humidity 100    
Minimum Humidity 85    
Precipitation  
Precipitation 0.75 in 0.05 in 1.56 in (2009)
Month to date precipitation 1.66 0.20  
Year to date precipitation 13.30 10.13  
Snow  
Snow 11.30 in 0.30 in - ()
Month to date snowfall 12.3 1.0  
Since 1 July snowfall 16.4 3.7  
Since 1 September snowfall 16.4 3.7  
Snow Depth 10.00 in    
Sea Level Pressure  
Sea Level Pressure 30.31 in    
Wind  
Wind Speed 8 mph (ENE)    
Max Wind Speed 24 mph    
Max Gust Speed 32 mph    
Visibility 2 miles    
Events Fog , Snow    
T = Trace of Precipitation, MM = Missing Value Source: NWS Daily Summary

Daily Weather History Graph

Daily Weather History Graph

Search for Another Location

Airport or City:

Trip Planner

Search our weather history database for the weather conditions in past years. The results will help you decide how hot, cold, wet, or windy it might be!

Date:

Astronomy

Oct. 04, 2013 Rise Set
Actual Time 7:15 AM MDT 6:50 PM MDT
Civil Twilight 6:47 AM MDT 7:18 PM MDT
Nautical Twilight 6:14 AM MDT 7:51 PM MDT
Astronomical Twilight 5:41 AM MDT 8:24 PM MDT
Moon 6:55 AM MDT (10/4) 6:33 PM MDT (10/4)
Length of Visible Light 12h 30m
Length of Day
11h 34m
Waning Crescent, 0% of the Moon is Illuminated
Oct 4
Waning Crescent
Oct 4
New
Oct 11
First Quarter
Oct 18
Full
Oct 26
Last Quarter

Hourly Weather History & Observations

Time (MDT) Temp. Windchill Dew Point Humidity Pressure Visibility Wind Dir Wind Speed Gust Speed Precip Events Conditions
12:20 AM 30.2 °F 25.4 °F 30.2 °F 100% 30.06 in 0.5 mi SE 4.6 mph - 0.03 in Fog , Snow Snow
12:38 AM 30.2 °F 26.7 °F 30.2 °F 100% 30.07 in 0.8 mi ESE 3.5 mph - 0.06 in Snow Light Snow
12:53 AM 30.0 °F - 30.0 °F 100% 30.11 in 0.5 mi Calm Calm - 0.08 in Fog , Snow Snow
1:53 AM 30.0 °F 25.2 °F 30.0 °F 100% 30.12 in 0.5 mi West 4.6 mph - 0.12 in Fog , Snow Snow
2:28 AM 30.2 °F 21.9 °F 30.2 °F 100% 30.10 in 0.5 mi North 9.2 mph - 0.06 in Fog , Snow Snow
2:42 AM 30.2 °F 22.6 °F 28.4 °F 93% 30.10 in 0.8 mi NNW 8.1 mph - 0.08 in Snow Light Snow
2:53 AM 30.0 °F 25.2 °F 30.0 °F 100% 30.16 in 0.8 mi NNW 4.6 mph - 0.09 in Snow Light Snow
3:19 AM 30.2 °F 20.8 °F 30.2 °F 100% 30.12 in 0.5 mi NNW 11.5 mph - 0.04 in Fog , Snow Snow
3:53 AM 28.9 °F 18.2 °F 28.9 °F 100% 30.17 in 0.8 mi NW 13.8 mph - 0.07 in Snow Light Snow
4:04 AM 28.4 °F 18.0 °F 28.4 °F 100% 30.13 in 0.8 mi NW 12.7 mph - 0.01 in Snow Light Snow
4:53 AM 28.9 °F 18.6 °F 28.0 °F 96% 30.21 in 0.8 mi NW 12.7 mph 21.9 mph 0.05 in Snow Light Snow
5:53 AM 28.9 °F 20.4 °F 28.9 °F 100% 30.25 in 1.0 mi NW 9.2 mph - 0.05 in Snow Light Snow
6:08 AM 28.4 °F 19.7 °F 28.4 °F 100% 30.18 in 0.8 mi NW 9.2 mph - 0.01 in Snow Light Snow
6:48 AM 28.4 °F 15.1 °F 28.4 °F 100% 30.20 in 0.5 mi North 20.7 mph 32.2 mph 0.07 in Fog , Snow Snow
6:53 AM 28.9 °F 17.3 °F 28.0 °F 96% 30.28 in 0.8 mi North 16.1 mph 32.2 mph 0.07 in Snow Light Snow
7:11 AM 28.4 °F 18.0 °F 28.4 °F 100% 30.21 in 1.0 mi NNW 12.7 mph - 0.01 in Snow Light Snow
7:39 AM 28.4 °F 18.5 °F 28.4 °F 100% 30.23 in 0.8 mi North 11.5 mph 21.9 mph 0.02 in Snow Light Snow
7:53 AM 28.0 °F 17.5 °F 28.0 °F 100% 30.32 in 0.5 mi NNW 12.7 mph - 0.03 in Fog , Snow Snow
8:48 AM 28.4 °F 23.3 °F 28.4 °F 100% 30.26 in 0.5 mi North 4.6 mph - 0.04 in Fog , Snow Snow
8:53 AM 28.9 °F 22.8 °F 28.0 °F 96% 30.33 in 0.5 mi North 5.8 mph - 0.05 in Fog , Snow Snow
9:53 AM 28.9 °F 21.9 °F 28.0 °F 96% 30.36 in 0.5 mi NNE 6.9 mph - 0.04 in Fog , Snow Snow
10:53 AM 28.9 °F 18.6 °F 27.0 °F 92% 30.39 in 0.8 mi North 12.7 mph 20.7 mph 0.02 in Snow Light Snow
11:00 AM 28.4 °F 18.0 °F 26.6 °F 93% 30.31 in 1.0 mi North 12.7 mph - 0.00 in Snow Light Snow
11:12 AM 28.4 °F 19.1 °F 26.6 °F 93% 30.32 in 1.0 mi North 10.4 mph - 0.00 in Snow Light Snow
11:22 AM 30.2 °F 21.3 °F 26.6 °F 86% 30.32 in 3.0 mi North 10.4 mph - 0.00 in Snow Light Snow
11:50 AM 30.2 °F 21.9 °F 26.6 °F 86% 30.33 in 2.0 mi North 9.2 mph - 0.00 in Snow Light Snow
11:53 AM 30.0 °F 23.2 °F 26.1 °F 85% 30.41 in 2.0 mi North 6.9 mph - 0.00 in Snow Light Snow
12:00 PM 28.4 °F 20.4 °F 26.6 °F 93% 30.33 in 1.5 mi North 8.1 mph - 0.00 in Snow Light Snow
12:16 PM 30.2 °F 25.4 °F 26.6 °F 86% 30.33 in 1.2 mi NE 4.6 mph - 0.00 in Snow Light Snow
12:26 PM 30.2 °F - 26.6 °F 86% 30.33 in 0.8 mi Calm Calm - 0.01 in Snow Light Snow
12:53 PM 28.9 °F - 28.0 °F 96% 30.42 in 0.8 mi Calm Calm - 0.02 in Snow Light Snow
1:42 PM 28.4 °F - 28.4 °F 100% 30.33 in 0.8 mi Calm Calm - 0.03 in Snow Light Snow
1:49 PM 28.4 °F 24.6 °F 28.4 °F 100% 30.33 in 0.8 mi SSE 3.5 mph - 0.03 in Snow Light Snow
1:53 PM 28.9 °F - 28.0 °F 96% 30.42 in 1.0 mi Calm Calm - 0.03 in Snow Light Snow
2:02 PM 28.4 °F 24.6 °F 28.4 °F 100% 30.33 in 0.8 mi SSE 3.5 mph - 0.00 in Snow Light Snow
2:13 PM 28.4 °F 23.3 °F 28.4 °F 100% 30.33 in 0.5 mi SE 4.6 mph - 0.01 in Fog , Snow Light Snow
2:20 PM 28.4 °F 22.2 °F 28.4 °F 100% 30.33 in 0.8 mi SE 5.8 mph - 0.01 in Snow Light Snow
2:30 PM 28.4 °F 21.2 °F 28.4 °F 100% 30.34 in 0.5 mi ESE 6.9 mph - 0.01 in Fog , Snow Light Snow
2:48 PM 28.4 °F 19.7 °F 28.4 °F 100% 30.34 in 0.5 mi ESE 9.2 mph - 0.02 in Fog , Snow Light Snow
2:53 PM 28.0 °F 19.3 °F 28.0 °F 100% 30.44 in 0.5 mi ESE 9.2 mph - 0.03 in Fog , Snow Light Snow
3:10 PM 28.4 °F 19.7 °F 28.4 °F 100% 30.35 in 0.2 mi SE 9.2 mph - 0.01 in Fog , Snow Snow
3:46 PM 28.4 °F 23.3 °F 28.4 °F 100% 30.35 in 0.5 mi SE 4.6 mph - 0.03 in Fog , Snow Light Snow
3:53 PM 28.0 °F 21.7 °F 28.0 °F 100% 30.45 in 0.5 mi SSE 5.8 mph - 0.04 in Fog , Snow Snow
4:50 PM 26.6 °F 17.5 °F 26.6 °F 100% 30.36 in 0.5 mi ESE 9.2 mph - 0.03 in Fog , Snow Light Snow
4:53 PM 27.0 °F 17.3 °F 27.0 °F 100% 30.46 in 0.5 mi SE 10.4 mph - 0.03 in Fog , Snow Light Snow
5:37 PM 26.6 °F 17.5 °F 26.6 °F 100% 30.36 in 0.8 mi SE 9.2 mph - 0.02 in Snow Light Snow
5:45 PM 26.6 °F 17.5 °F 26.6 °F 100% 30.36 in 1.2 mi SE 9.2 mph - 0.02 in Snow Light Snow
5:53 PM 27.0 °F 18.0 °F 26.1 °F 96% 30.46 in 0.8 mi ESE 9.2 mph - 0.02 in Snow Light Snow
5:57 PM 26.6 °F 16.8 °F 26.6 °F 100% 30.36 in 1.0 mi ESE 10.4 mph - 0.00 in Snow Light Snow
6:13 PM 26.6 °F 18.2 °F 26.6 °F 100% 30.36 in 2.0 mi SE 8.1 mph - 0.00 in Snow Light Snow
6:23 PM 26.6 °F 17.5 °F 26.6 °F 100% 30.36 in 1.8 mi SE 9.2 mph - 0.00 in Snow Light Snow
6:33 PM 26.6 °F 17.5 °F 26.6 °F 100% 30.36 in 2.5 mi SE 9.2 mph - 0.00 in   Overcast
6:37 PM 26.6 °F 17.5 °F 26.6 °F 100% 30.36 in 3.0 mi SE 9.2 mph - 0.00 in   Overcast
6:53 PM 27.0 °F 18.0 °F 26.1 °F 96% 30.46 in 5.0 mi SE 9.2 mph - 0.00 in   Overcast
7:53 PM 27.0 °F 16.1 °F 25.0 °F 92% 30.46 in 10.0 mi SE 12.7 mph - N/A   Overcast
8:53 PM 27.0 °F 18.7 °F 25.0 °F 92% 30.45 in 10.0 mi SE 8.1 mph - N/A   Overcast
9:53 PM 28.0 °F 24.2 °F 25.0 °F 88% 30.46 in 10.0 mi West 3.5 mph - N/A   Overcast
10:53 PM 27.0 °F 16.7 °F 24.1 °F 89% 30.45 in 10.0 mi SE 11.5 mph - N/A   Overcast
11:53 PM 27.0 °F 19.5 °F 24.1 °F 89% 30.45 in 10.0 mi SSW 6.9 mph - N/A   Overcast